TimeCDT,TemperatureF,Dew PointF,Humidity,Sea Level PressureIn,VisibilityMPH,Wind Direction,Wind SpeedMPH,Gust SpeedMPH,PrecipitationIn,Events,Conditions,WindDirDegrees,DateUTC
12:54 AM,34.0,26.1,73,30.41,10.0,WSW,3.5,-,N/A,,Clear,240,2013-10-25 05:54:00
1:54 AM,34.0,26.1,73,30.42,10.0,WSW,3.5,-,N/A,,Clear,240,2013-10-25 06:54:00
2:54 AM,33.1,25.0,72,30.42,10.0,WSW,3.5,-,N/A,,Clear,240,2013-10-25 07:54:00
3:54 AM,30.0,24.1,79,30.43,10.0,Calm,Calm,-,N/A,,Clear,0,2013-10-25 08:54:00
4:54 AM,30.0,25.0,82,30.43,10.0,Calm,Calm,-,N/A,,Clear,0,2013-10-25 09:54:00
5:54 AM,28.0,24.1,85,30.44,10.0,SW,3.5,-,N/A,,Clear,220,2013-10-25 10:54:00
6:54 AM,28.0,24.1,85,30.43,10.0,South,4.6,-,N/A,,Clear,190,2013-10-25 11:54:00
7:54 AM,28.0,23.0,81,30.42,10.0,South,5.8,-,N/A,,Partly Cloudy,170,2013-10-25 12:54:00
8:54 AM,32.0,26.1,79,30.42,10.0,SSW,5.8,-,N/A,,Partly Cloudy,200,2013-10-25 13:54:00
9:54 AM,39.9,28.9,65,30.41,10.0,SW,10.4,-,N/A,,Partly Cloudy,220,2013-10-25 14:54:00
10:54 AM,46.9,28.9,50,30.39,10.0,SW,12.7,-,N/A,,Partly Cloudy,220,2013-10-25 15:54:00
11:54 AM,52.0,28.0,40,30.36,10.0,SSW,16.1,-,N/A,,Scattered Clouds,210,2013-10-25 16:54:00
12:54 PM,54.0,28.0,37,30.32,10.0,WSW,17.3,-,N/A,,Mostly Cloudy,240,2013-10-25 17:54:00
1:54 PM,55.0,28.9,37,30.27,10.0,SW,16.1,26.5,N/A,,Mostly Cloudy,220,2013-10-25 18:54:00
2:54 PM,55.0,28.0,35,30.23,10.0,SW,19.6,-,N/A,,Scattered Clouds,230,2013-10-25 19:54:00
3:54 PM,57.0,28.9,34,30.20,10.0,WSW,18.4,-,N/A,,Partly Cloudy,240,2013-10-25 20:54:00
4:54 PM,55.9,28.9,36,30.17,10.0,SSW,19.6,29.9,N/A,,Partly Cloudy,210,2013-10-25 21:54:00
5:54 PM,54.0,28.0,37,30.14,10.0,SW,16.1,-,N/A,,Partly Cloudy,220,2013-10-25 22:54:00
6:54 PM,51.1,28.0,41,30.12,10.0,SSW,13.8,-,N/A,,Partly Cloudy,200,2013-10-25 23:54:00
7:54 PM,50.0,28.0,43,30.11,10.0,SSW,11.5,-,N/A,,Clear,210,2013-10-26 00:54:00
8:54 PM,48.9,28.0,44,30.09,10.0,SSW,15.0,-,N/A,,Clear,210,2013-10-26 01:54:00
9:54 PM,48.0,28.0,46,30.09,10.0,SW,12.7,-,N/A,,Clear,230,2013-10-26 02:54:00
10:54 PM,48.9,28.0,44,30.07,10.0,SW,19.6,-,N/A,,Clear,230,2013-10-26 03:54:00
11:54 PM,48.0,27.0,44,30.05,10.0,WSW,15.0,-,N/A,,Clear,240,2013-10-26 04:54:00